ATLAS 5 CENTAUR DEB, 46848

Orbit data source: Space-Track

ATLAS 5 CENTAUR DEB, 46848 is space debris in HEO originally from a launch on Wed, 17 Oct 2018 UTC launched from the Air Force Eastern Test Range (AFETR). Debris objects in space refer to the collection of defunct objects orbiting the Earth. Examples of debris include non-operational satellites, rocket bodies, and fragments generated from explosions, collisions, or faulty payload assembly.

Loading next visibility...
Identifier
46848, 2018-079DD
Orbit
HEO
Country
Flag of USUS
Related business
Flag of USUnited Launch Alliance/Lockheed Martin (US)
Manufacturer
ULA Decatur
Mission
Spacecraft
Bus & Motor
Unknown
Mass
Unknown
Launch date (UTC)
2018-10-17 (7 years ago)
Launch vehicle
Unknown
Launch site
Air Force Eastern Test Range (AFETR)
Object type
Payload
Rocket body
Debris
Shape & HBR
Unknown shape, 1.1 m
Radar Cross Section
Large (>1 m²)

Expand to show TLE details & history
Last TLE update: 2 days ago

TLE from 2 days ago
0 ATLAS 5 CENTAUR DEB
1 46848U 18079DD  25348.09615169 -.00000098  00000-0  00000-0 0  9992
2 46848  13.0643  65.4810 4481244 249.8243  57.4515  1.79120243 33475
Epoch: 2025-12-14T02:18Z
TLE epoch observation values (Epoch: 2025-12-14T02:18:27.506Z)
Latitude
0.00003°
Longitude
-52.21366°
Altitude
20,716.108 km
Speed
3.938 km/s
True Right ascension
04h 21m 39s
True Declination
0° 00' 00"
Sunlit
Object was in daylight at epoch
Visualization orbit readout
Latitude
Unknown
Longitude
Unknown
Altitude
Unknown
Speed
Unknown
Apparent Right ascension
Unknown
Apparent Declination
Unknown
Sunlit
N/A
Visualization observer readout
Local Sidereal Time
11:39:04
Azimuth
Unknown
Elevation
Unknown
Doppler factor
Unknown
Orbital elements
Apogee altitude
35,098.958 km
Perigee altitude
9,428.652 km
Semi-major axis
28,641.942 km
Eccentricity
0.44812
Inclination
13.0643°
RAAN
65.481°
Arg. of periapsis
249.8243°
True anomaly
110.12372°
Mean anomaly
57.4515°
Eccentric anomaly
82.93202°
Mean motion
0.44775 °/min
Orbital period
804.01 mins
BSTAR
0
Loading maneuver chart data...
Computing Atmospheric mass density...

Documentation

Showing up to 5 results
|